Location: Nordegg
(52.4712°N, 116.0743°W)
Time: 08:19:33
(UTC+00:00)

Envisat - Pass Details

Date: 08 December 2021
Orbit: 764 x 766 km, 98.2° (Epoch: 25 January)

Event Time Altitude Azimuth Distance (km) Brightness Sun altitude
Rises 11:22:45 0° 27° (NNE) 3,247 6.7 -38.0°
Reaches altitude 10° 11:26:01 10° 49° (NE) 2,314 6.1 -37.5°
Maximum altitude 11:29:04 16° 86° (E) 1,932 5.7 -37.1°
Drops below altitude 10° 11:32:07 10° 123° (ESE) 2,303 5.9 -36.6°
Sets 11:35:21 0° 145° (SE) 3,222 6.5 -36.1°
